Location: Newark
(33.6333°S, 78.8500°W)
Time: 09:10:12
(UTC+00:00)

Courier 1B Rocket - All Passes

Search period start: 24 September 2019 00:00
Search period end: 04 October 2019 00:00
Orbit: 920 x 1202 km, 28.2° (Epoch: 23 September)

Date Brightness Start Highest point End Pass type
(mag) Time Alt. Az. Time Alt. Az. Time Alt. Az.
24 Sep - 04:37:31 10° N 04:39:37 12° NNE 04:41:44 10° NE night (unlit)
24 Sep - 06:26:43 10° NW 06:32:14 33° NNE 06:37:58 10° E visible
24 Sep - 08:18:59 10° WNW 08:25:13 53° N 08:31:52 10° E visible
24 Sep - 10:12:02 10° W 10:18:27 50° N 10:25:21 10° ENE visible
24 Sep - 12:05:44 10° WNW 12:11:36 29° NNW 12:17:49 10° NE daylight
24 Sep - 14:03:39 10° NW 14:04:34 10° NNW 14:05:30 10° NNW daylight
25 Sep - 05:26:28 10° NNW 05:31:26 25° NNE 05:36:29 10° ENE night (unlit)
25 Sep - 07:18:15 10° WNW 07:24:16 48° N 07:30:38 10° E visible
25 Sep - 09:11:08 10° W 09:17:27 54° N 09:24:12 10° ENE visible
25 Sep - 11:04:32 10° W 11:10:37 36° NNW 11:17:06 10° NE daylight
25 Sep - 12:59:42 10° WNW 13:03:37 15° NNW 13:07:38 10° N daylight
26 Sep - 04:26:37 10° NNW 04:30:40 18° NNE 04:34:44 10° ENE night (unlit)
26 Sep - 06:17:36 10° NW 06:23:24 40° NNE 06:29:24 10° E visible
26 Sep - 08:10:16 10° WNW 08:16:28 54° N 08:23:01 10° ENE visible
26 Sep - 10:03:29 10° W 10:09:38 42° NNW 10:16:13 10° NE visible
26 Sep - 11:57:42 10° WNW 12:02:40 21° NNW 12:07:51 10° NNE daylight
27 Sep - 03:27:36 10° N 03:29:55 12° NNE 03:32:14 10° NE night (unlit)
27 Sep - 05:17:06 10° NW 05:22:35 32° NNE 05:28:08 10° E night (unlit)
27 Sep - 07:09:27 10° WNW 07:15:32 52° N 07:21:52 10° E visible
27 Sep - 09:02:32 10° W 09:08:41 48° N 09:15:12 10° ENE visible
27 Sep - 10:56:14 10° WNW 11:01:44 27° NNW 11:07:31 10° NNE daylight
28 Sep - 04:16:46 10° NNW 04:21:47 25° NNE 04:26:47 10° ENE night (unlit)
28 Sep - 06:08:40 10° WNW 06:14:38 47° N 06:20:44 10° E night (unlit)
28 Sep - 08:01:37 10° W 08:07:44 52° N 08:14:09 10° ENE visible
28 Sep - 09:55:02 10° W 10:00:48 34° NNW 10:06:54 10° NE visible
28 Sep - 11:50:24 10° WNW 11:53:42 14° NNW 11:57:06 10° N daylight
29 Sep - 03:16:46 10° NNW 03:21:00 19° NNE 03:25:11 10° ENE night (unlit)
29 Sep - 05:07:57 10° NW 05:13:46 40° NNE 05:19:38 10° E night (unlit)
29 Sep - 07:00:44 10° WNW 07:06:49 54° N 07:13:05 10° ENE visible
29 Sep - 08:54:00 10° W 08:59:54 40° NNW 09:06:06 10° NE visible
29 Sep - 10:48:18 10° WNW 10:52:49 19° NNW 10:57:31 10° NNE daylight
30 Sep - 02:17:27 10° N 02:20:13 13° NNE 02:22:57 10° NE night (unlit)
30 Sep - 04:07:21 10° NW 04:12:56 33° NNE 04:18:28 10° E night (unlit)
30 Sep - 05:59:51 10° WNW 06:05:54 52° N 06:12:02 10° E night (unlit)
30 Sep - 07:53:01 10° W 07:58:59 47° N 08:05:13 10° ENE visible
30 Sep - 09:46:48 10° WNW 09:51:56 25° NNW 09:57:19 10° NNE visible
01 Oct - 03:06:54 10° NNW 03:12:07 26° NNE 03:17:13 10° ENE night (unlit)
01 Oct - 04:58:59 10° WNW 05:05:01 47° N 05:11:01 10° E night (unlit)
01 Oct - 06:52:03 10° W 06:58:05 51° N 07:04:16 10° ENE visible
01 Oct - 08:45:34 10° W 08:51:05 32° NNW 08:56:49 10° NE visible
01 Oct - 10:41:17 10° NW 10:43:53 12° NNW 10:46:32 10° N daylight
02 Oct - 02:06:44 10° NNW 02:11:18 20° NNE 02:15:44 10° ENE visible
02 Oct - 03:58:10 10° NW 04:04:09 41° NNE 04:09:59 10° E night (unlit)
02 Oct - 05:51:06 10° WNW 05:57:12 53° N 06:03:18 10° ENE night (unlit)
02 Oct - 07:44:27 10° W 07:50:14 39° NNW 07:56:09 10° NE visible
02 Oct - 09:38:56 10° WNW 09:43:03 18° NNW 09:47:17 10° NNE visible
03 Oct - 01:07:07 10° N 01:10:28 14° NNE 01:13:44 10° ENE visible
03 Oct - 02:57:26 10° NW 03:03:17 34° NNE 03:08:55 10° E night (unlit)
03 Oct - 04:50:07 10° WNW 04:56:18 52° N 05:02:21 10° ENE night (unlit)
03 Oct - 06:43:25 10° W 06:49:22 46° N 06:55:22 10° ENE night (unlit)
03 Oct - 08:37:20 10° WNW 08:42:14 24° NNW 08:47:16 10° NNE visible
